User: anonymous   Login
Location: Unspecified
(35.6961°N, 0.0000°E)
Time: 16:44:25
(UTC+00:00)
Language:

A-11 Canister half - Orbit

View from above orbital plane
View from above orbital plane
View from above satellite
View from above satellite

Ground track
Ground track

The orbit data is extracted from the following two-line orbital elements,

1    51U 60009C   19139.42807684 -.00000063  00000-0  22710-3 0  9998
2    51  47.2102 129.5253 0104206  67.7003 293.4795 12.18270676615929
Epoch (UTC): 19 May 2019 10:16:25
Eccentricity: 0.0104206
inclination: 47.2102°
perigee height: 1517 km
apogee height: 1683 km
right ascension of ascending node: 129.5253°
argument of perigee: 67.7003°
revolutions per day: 12.18270676
mean anomaly at epoch: 293.4795°
orbit number at epoch: 61592

The dashed part of the orbit path shows where the satellite is in the earth's shadow,  

DLR